Change the Weather History Date:

Sunday, December 30, 2012

  Actual Average Record
Temperature  
Mean Temperature 46 °F -  
Max Temperature 55 °F 67 °F 82 °F (2006)
Min Temperature 37 °F 48 °F 35 °F (2002)
Degree Days  
Heating Degree Days 19    
Moisture  
Dew Point 37 °F    
Average Humidity 75    
Maximum Humidity 93    
Minimum Humidity 44    
Precipitation  
Precipitation 0.00 in - - ()
Sea Level Pressure  
Sea Level Pressure 30.30 in    
Wind  
Wind Speed 10 mph (North)    
Max Wind Speed 17 mph    
Max Gust Speed 23 mph    
Visibility 11 miles    
Events      
Averages and records for this station are not official NWS values.
T = Trace of Precipitation, MM = Missing Value Source: NWS Daily Summary

Daily Weather History Graph

Daily Weather History Graph

Search for Another Location

Airport or City:

Trip Planner

Search our weather history database for the weather conditions in past years. The results will help you decide how hot, cold, wet, or windy it might be!

Date:

Astronomy

Dec. 30, 2012 Rise Set
Actual Time 7:19 AM EST 5:42 PM EST
Civil Twilight 6:53 AM EST 6:08 PM EST
Nautical Twilight 6:24 AM EST 6:37 PM EST
Astronomical Twilight 5:55 AM EST 7:06 PM EST
Moon 7:59 PM EST (12/30) 8:38 AM EST (12/30)
Length of Visible Light 11h 15m
Length of Day
10h 23m
Waning Gibbous, 95% of the Moon is Illuminated
Dec 30
Waning Gibbous
Jan 4
Last Quarter
Jan 11
New
Jan 18
First Quarter
Jan 26
Full

Hourly Weather History & Observations

Time (EST) Temp. Windchill Dew Point Humidity Pressure Visibility Wind Dir Wind Speed Gust Speed Precip Events Conditions
12:15 AM 51.8 °F - 44.6 °F 76% 30.18 in 10.0 mi NNW 8.1 mph - N/A   Clear
12:35 AM 50.0 °F - 42.8 °F 76% 30.18 in 10.0 mi NW 17.3 mph 23.0 mph N/A   Clear
12:55 AM 48.2 °F - 42.8 °F 82% 30.18 in 10.0 mi NW 16.1 mph - N/A   Clear
1:15 AM 46.4 °F 41.1 °F 41.0 °F 81% 30.20 in 10.0 mi NW 11.5 mph - N/A   Scattered Clouds
1:35 AM 46.4 °F 40.7 °F 41.0 °F 81% 30.20 in 10.0 mi NNW 12.7 mph 17.3 mph N/A   Scattered Clouds
1:55 AM 46.4 °F 42.4 °F 41.0 °F 81% 30.21 in 10.0 mi NW 8.1 mph - N/A   Mostly Cloudy
2:15 AM 44.6 °F 38.1 °F 41.0 °F 87% 30.22 in 10.0 mi North 13.8 mph - N/A   Overcast
2:35 AM 44.6 °F 38.4 °F 37.4 °F 76% 30.22 in 10.0 mi North 12.7 mph 18.4 mph N/A   Mostly Cloudy
2:55 AM 42.8 °F 35.8 °F 35.6 °F 76% 30.24 in 10.0 mi North 13.8 mph 20.7 mph N/A   Scattered Clouds
3:15 AM 42.8 °F 36.6 °F 35.6 °F 76% 30.24 in 10.0 mi North 11.5 mph - N/A   Clear
3:35 AM 41.0 °F 32.5 °F 33.8 °F 76% 30.25 in 10.0 mi North 17.3 mph - N/A   Clear
3:55 AM 41.0 °F 33.5 °F 33.8 °F 76% 30.25 in 10.0 mi North 13.8 mph 17.3 mph N/A   Clear
4:15 AM 41.0 °F 35.2 °F 33.8 °F 76% 30.26 in 10.0 mi North 9.2 mph - N/A   Clear
4:35 AM 41.0 °F 36.4 °F 33.8 °F 76% 30.26 in 10.0 mi North 6.9 mph - N/A   Clear
4:55 AM 41.0 °F 36.4 °F 33.8 °F 76% 30.26 in 10.0 mi North 6.9 mph - N/A   Clear
5:15 AM 39.2 °F 33.6 °F 33.8 °F 81% 30.27 in 10.0 mi North 8.1 mph - N/A   Clear
5:35 AM 37.4 °F 31.4 °F 33.8 °F 87% 30.27 in 10.0 mi North 8.1 mph - N/A   Clear
6:59 AM 37.4 °F 32.1 °F 33.8 °F 87% 30.31 in 7.0 mi North 6.9 mph - N/A   Scattered Clouds
7:50 AM 37.4 °F 32.8 °F 33.8 °F 87% 30.33 in 7.0 mi North 5.8 mph - N/A   Mostly Cloudy
8:55 AM 41.0 °F 35.2 °F 33.8 °F 76% 30.35 in 10.0 mi North 9.2 mph - N/A   Mostly Cloudy
9:54 AM 42.8 °F 36.6 °F 33.8 °F 70% 30.37 in 10.0 mi North 11.5 mph - N/A   Mostly Cloudy
10:50 AM 46.4 °F 41.5 °F 32.0 °F 57% 30.38 in 10.0 mi NNE 10.4 mph - N/A   Mostly Cloudy
11:50 AM 48.2 °F - 33.8 °F 58% 30.36 in 12.0 mi NNE 6.9 mph - N/A   Mostly Cloudy
12:51 PM 51.8 °F - 32.0 °F 47% 30.33 in 15.0 mi NE 9.2 mph 18.4 mph N/A   Mostly Cloudy
1:54 PM 53.6 °F - 33.8 °F 47% 30.31 in 15.0 mi NNE 10.4 mph - N/A   Mostly Cloudy
2:50 PM 55.4 °F - 33.8 °F 44% 30.31 in 5.0 mi NE 10.4 mph - N/A   Mostly Cloudy
3:50 PM 55.4 °F - 33.8 °F 44% 30.32 in 15.0 mi ENE 11.5 mph - N/A   Mostly Cloudy
4:50 PM 53.6 °F - 35.6 °F 51% 30.32 in 15.0 mi NE 8.1 mph - N/A   Mostly Cloudy
5:50 PM 51.8 °F - 37.4 °F 58% 30.34 in 15.0 mi ENE 8.1 mph - N/A   Mostly Cloudy
6:51 PM 48.2 °F - 39.2 °F 71% 30.35 in 15.0 mi ENE 3.5 mph - N/A   Mostly Cloudy
7:51 PM 48.2 °F - 41.0 °F 76% 30.35 in 12.0 mi ENE 5.8 mph - N/A   Mostly Cloudy
8:50 PM 48.2 °F - 42.8 °F 82% 30.36 in 12.0 mi NE 3.5 mph - N/A   Mostly Cloudy
9:50 PM 46.4 °F 44.3 °F 42.8 °F 87% 30.36 in 12.0 mi North 4.6 mph - N/A   Scattered Clouds
9:55 PM 44.6 °F 42.2 °F 41.0 °F 87% 30.36 in 10.0 mi North 4.6 mph - N/A   Clear
10:15 PM 44.6 °F 42.2 °F 41.0 °F 87% 30.36 in 10.0 mi North 4.6 mph - N/A   Clear
10:35 PM 44.6 °F 42.2 °F 41.0 °F 87% 30.36 in 10.0 mi North 4.6 mph - N/A   Clear
10:55 PM 44.6 °F 42.2 °F 41.0 °F 87% 30.36 in 10.0 mi North 4.6 mph - N/A   Clear
11:15 PM 44.6 °F 42.2 °F 41.0 °F 87% 30.36 in 10.0 mi North 4.6 mph - N/A   Clear
11:35 PM 44.6 °F 41.4 °F 41.0 °F 87% 30.36 in 10.0 mi North 5.8 mph - N/A   Clear
11:55 PM 42.8 °F 39.3 °F 41.0 °F 93% 30.35 in 10.0 mi NNE 5.8 mph - N/A   Clear